Tracking 19854 objects as of 23-Sep-2019
HD Live streaming from Space Station
objects crossing your sky now

COSMOS 371

Track COSMOS 371 now!
10-day predictions
COSMOS 371 is classified as:


NORAD ID: 4578
Int'l Code: 1970-083A
Perigee: 718.2 km
Apogee: 721.9 km
Inclination: 74.0 °
Period: 99.0 minutes
Semi major axis: 7091 km
RCS: 2.5963 m2 (large)
Launch date: October 12, 1970
Source: Commonwealth of Independent States (former USSR) (CIS)
Launch site: PLESETSK MISSILE AND SPACE COMPLEX (PKMTR)
aabbcc
Your satellite tracking list
Your tracking list is empty




NASA's NSSDC Master Catalog

Two Line Element Set (TLE):
1  4578U 70083A   19265.26711549  .00000014  00000-0  10224-4 0  9998
2  4578  73.9997 157.2770 0002594 348.3391  11.7711 14.53910650588395
Source of the keplerian elements: AFSPC